This demonstration page uses our WeatherBlox Daily Observations layout. Learn more.

Left ArrowRight Arrow

Hourly Observations for November 18, 2015

Temp ( °F °C ) Dew Point ( °F °C ) Humidity (%) Winds ( mph kmh ) Pressure ( in mb ) Visibility ( mi km ) Precip ( " mm )
12:02 am 00:02 Cloudy with Light Rain 36 2.2 34 1.1 93 93 NNW 14 22 29.44 997 4 6 0.00 0.03
12:28 am 00:28 Cloudy with Mist and Fog 36 2 34 1 93 93 NW 15 24 29.44 997 4 6 0.00 0.00
12:38 am 00:38 Cloudy with Mist and Fog 36 2 34 1 93 93 NNW 14 22 29.44 997 4 6 0.00 0.00
12:53 am 00:53 Cloudy with Mist and Fog 36 2.2 34 1.1 93 93 NW 12 19 29.41 996 6 10 0.00 0.03
1:21 am 01:21 Cloudy with Mist and Fog 36 2.2 34 1.1 93 93 NW 13 20 29.44 997 4 6 0.00 0.00
1:53 am 01:53 Cloudy 35 1.7 33 0.6 93 93 NW 14 22 29.38 995 8 13 0.00 0.00
2:10 am 02:10 Cloudy 36 2 34 1 93 93 NW 16 26 29.41 996 10 16 0.00 0.00
2:19 am 02:19 Cloudy 36 2 34 1 93 93 NW 14 22 29.41 996 10 16 0.00 0.00
2:53 am 02:53 Cloudy 35 1.7 33 0.6 93 93 NW 16 26 29.36 994 10 16 0.01 0.25
3:05 am 03:05 Cloudy 35 1.7 33 0.6 93 93 NW 14 22 29.38 995 9 14 0.00 0.00
3:14 am 03:14 Cloudy 35 1.7 33 0.6 93 93 NW 15 24 29.41 996 10 16 0.00 0.00
3:32 am 03:32 Cloudy 36 2 34 1 93 93 NW 13 20 29.41 996 10 16 0.00 0.00
3:53 am 03:53 Cloudy 34 1.1 31 -0.6 89 89 NW 21 33 29.36 994 10 16 0.00 0.00
4:00 am 04:00 Cloudy 34 1 30 -1 87 87 NW 17 28 29.38 995 10 16 0.00 0.00
4:53 am 04:53 Cloudy 34 1.1 29 -1.7 82 82 NNW 15 24 29.34 994 10 16 0.00 0.03
5:53 am 05:53 Cloudy with Light Wintry Mix 34 1.1 29 -1.7 82 82 NW 13 20 29.34 994 10 16 0.00 0.03
6:53 am 06:53 Cloudy 34 1.1 30 -1.1 85 85 WNW 12 19 29.34 994 10 16 0.00 0.03
7:29 am 07:29 Cloudy with Light Snow 34 1 28 -2 81 81 WNW 13 20 29.38 995 5 8 0.00 0.00
7:53 am 07:53 Cloudy 34 1.1 30 -1.1 85 85 WNW 7 11 29.35 994 10 16 0.00 0.03
8:53 am 08:53 Mostly Sunny 36 2.2 28 -2.2 73 73 W 10 17 29.36 994 10 16 0.00 0.00
9:53 am 09:53 Sunny 38 3.3 28 -2.2 68 68 W 10 17 29.35 994 10 16 0.00 0.00
10:53 am 10:53 Sunny 40 4.4 29 -1.7 65 65 WSW 10 17 29.35 994 10 16 0.00 0.00
11:53 am 11:53 Sunny 43 6.1 32 0 65 65 WSW 10 17 29.35 994 10 16 0.00 0.00
12:53 pm 12:53 Mostly Cloudy 44 6.7 34 1.1 68 68 WSW 17 28 29.36 994 10 16 0.00 0.00
1:53 pm 13:53 Cloudy with Light Rain 45 7.2 35 1.7 68 68 W 15 24 29.40 996 10 16 0.00 0.03
2:53 pm 14:53 Cloudy 47 8.3 38 3.3 71 71 WNW 16 26 29.45 997 10 16 0.00 0.03
3:53 pm 15:53 Cloudy with Light Rain 49 9.4 40 4.4 71 71 WNW 18 30 29.49 999 10 16 0.00 0.03
4:53 pm 16:53 Cloudy 50 10 38 3.3 63 63 NNW 16 26 29.57 1001 10 16 0.00 0.03
5:53 pm 17:53 Mostly Cloudy 49 9.4 35 1.7 59 59 NW 16 26 29.63 1003 10 16 0.00 0.00
6:53 pm 18:53 Cloudy 48 8.9 31 -0.6 52 52 NW 21 33 29.70 1006 10 16 0.00 0.00
7:53 pm 19:53 Mostly Cloudy 43 6.1 28 -2.2 56 56 NW 25 41 29.80 1009 10 16 0.00 0.00
8:53 pm 20:53 Cloudy 41 5 27 -2.8 57 57 NNW 23 37 29.85 1011 10 16 0.00 0.00
9:53 pm 21:53 Clear 38 3.3 25 -3.9 60 60 NW 17 28 29.92 1013 10 16 0.00 0.00
10:53 pm 22:53 Clear 36 2.2 22 -5.6 57 57 NW 16 26 29.97 1015 10 16 0.00 0.00
11:53 pm 23:53 Clear 34 1.1 22 -5.6 61 61 NW 15 24 30.01 1016 10 16 0.00 0.00

Powered by AerisWeather